Weather in Kavieng

Papua New Guinea     2°41′51″S   151°00′56″E
temp.,
°C
wind,
m/s
gust,
m/s
humid.,
%
clouds,
%
prec.,
mm/h
press.,
hPa
HPBL,
m
14 april, wed
wed1401:00+23ese1188100 0.0 100849
04:00+22sw119234 0.0 100731
07:00+25w118458 0.0 100964
10:00+29s236567 0.0 10091063
13:00+30s226128 0.0 10061315
16:00+28se227099 0.1 1005737
19:00+25se1185100 0.1 100882
22:00+24ese118861 0.1 100990
15 april, thu
thu1501:00+23e018997 0.0 100774
04:00+23ene12887 0.0 100687
07:00+26ne24815 0.0 1008191
10:00+30nne236048 0.0 10091191
13:00+31nne335752 0.0 10061523
16:00+29nne336366 0.0 1005941
19:00+25ene1282100 0.0 100787
22:00+25ne128493 0.0 100994
16 april, fri
fri1601:00+24nne1191100 0.9 100743
04:00+24nne129197 2.0 100773
07:00+25ne129099 0.0 1009118
10:00+28n2379100 1.6 1009725
13:00+27n3482100 2.2 1006788
16:00+25nne259489 5.6 1007185
19:00+24ne2495100 3.3 1009151
22:00+24nne3796100 5.3 1010331
17 april, sat
sat1701:00+23ene3698100 14.1 1006301
04:00+23nw2598100 76.3 1008288
07:00+23wnw2497100 2.8 1010194
10:00+24n2496100 4.2 1011263
13:00+24nnw2596100 3.6 1008415
16:00+27nw3583100 2.4 1007504
19:00+24nw3796100 1.3 1009311
22:00+24wnw2696100 1.6 1010230
18 april, sun
sun1801:00+24wnw2499100 7.0 1008212
04:00+24wnw4995100 16.6 1007531
07:00+23wnw3993100 1.4 1009309
10:00+24w3792100 1.7 1010336
13:00+24nw1294100 0.5 1008235
16:00+24wnw2597100 2.8 1007227
19:00+23sw1298100 1.0 100992
22:00+23w2499100 15.0 1009195